{"data":{"norad_id":59555,"intl_designator":"2024-074X","name":"STARLINK-31730","alt_names":[],"object_type":"PAYLOAD","status":"ACTIVE","operator":null,"country":"US","launch_date":"2024-04-18","launch_site_code":"AFETR","launch_vehicle":null,"mission":null,"orbit_class":"UNKNOWN","rcs_meters":null,"size_class":null,"mass_kg":null,"dimensions":null,"purposes":["comms"],"wikipedia_slug":null,"has_3d_model":false,"image_url":null,"decayed_at":null,"tle_current":{"epoch":"2026-09-21T11:31:14.802816Z","epoch_age_seconds":83596,"freshness":"FRESH","line1":"1 59555U 24074X   26264.48003244 -.00001649  00000+0 -50442-4 0  9991","line2":"2 59555  43.0052 318.1661 0001470 268.7152  91.3531 15.27564203135954","mean_motion":15.27564203,"eccentricity":0.000147,"inclination_deg":43.0052,"raan_deg":318.1661,"arg_perigee_deg":268.7152,"mean_anomaly_deg":91.3531,"bstar":-5.0442e-5,"rev_number":13595,"period_min":94.267723554399,"perigee_km":482.08779703867,"apogee_km":484.10499965779,"semimajor_km":6861.2333983482,"source":"CELESTRAK","updated_at":"2026-09-22T09:00:48.976328Z"}}}